world map with BLL marked

BLL - Airport

This information may not be accurate or current and is not valid for navigation or flight planning. No warranty of fitness for any purpose is made or implied.

flag of Denmark

Donate via PayPal

Additional information is available on the NEW Great Circle Mapper

Location
City:  Billund, Denmark
ICAO / IATA:EKBI / BLL

Details
Type:Airport (Aerodrome, Airfield)
Latitude:55°44'25"N (55.740322)
Longitude:9°09'06"E (9.151778)
Elevation:247 ft (75 m)
Runways:1
Longest:10171 × 148 ft (3100 × 45 m)

Time
Timezone:UTC+1 (DST+4)
Local Time:

Weather
METAR:EKBI  210320Z AUTO 00000KT 0750NDV R09/P1500N R27/0600D BCFG FEW003/// 07/07 Q1013
TAF:EKBI  202302Z 2100/2124 VRB03KT CAVOK PROB40 2101/2105 0700 BCFG TEMPO 2105/2106 BKN005 BECMG 2107/2110 29010KT

Related Locations
Nearby:
Farthest:CHT: 11569 mi / 18619 km
Waitangi [Tuuta], CIT, NZ

Find:

   beyond  
but within

Other Information
Maps:
Links:
Sources:

  


 


Great Circle Mapper   Great Circle Mapper
Great Circle Mapper FAQ   Great Circle Mapper FAQ
  Karl's Home Page
KLSē   KLSē Home
   GC on Facebook
Airlines of the World   Airlines of the World
Donate via PayPal


Copyright © 2004-2018, Karl L. Swartz. All rights reserved.
All trademarks mentioned herein belong to their respective owners.

Please see credits for attribution and copyright information.

Karl Swartz <karl@kls2.com>
  Powered by FreeBSD
Valid HTML 4.01!
Labeled with ICRA
hCard Microformat
Geo Microformat